This is the latest recevied weather packets stored in our database for station/object F1ZTH-10. If no packets are shown the sender has not sent any weather packets the latest 10 day(s).
| Time | Temp. | Humidity | Pressure | Rain* | Wind** | Luminosity | Snow |
|---|---|---|---|---|---|---|---|
| 1777845472 | 14.44° C | 54% | 975 hPa | - | - | - | - |
| 1777844572 | 14.44° C | 54% | 975 hPa | - | - | - | - |
| 1777843672 | 15° C | 54% | 975 hPa | - | - | - | - |
| 1777842772 | 15° C | 54% | 975 hPa | - | - | - | - |
| 1777841872 | 15° C | 54% | 975 hPa | - | - | - | - |
| 1777840972 | 15° C | 53% | 975 hPa | - | - | - | - |
| 1777840072 | 15° C | 53% | 975 hPa | - | - | - | - |
| 1777839172 | 15.56° C | 53% | 975 hPa | - | - | - | - |
| 1777838272 | 15.56° C | 53% | 975 hPa | - | - | - | - |
| 1777837372 | 16.11° C | 53% | 975 hPa | - | - | - | - |
| 1777836472 | 16.11° C | 52% | 975 hPa | - | - | - | - |
| 1777835572 | 16.67° C | 52% | 975 hPa | - | - | - | - |
| 1777834672 | 17.22° C | 51% | 975 hPa | - | - | - | - |
| 1777833772 | 17.78° C | 50% | 975 hPa | - | - | - | - |
| 1777832872 | 19.44° C | 49% | 974 hPa | - | - | - | - |
| 1777831972 | 20° C | 48% | 974 hPa | - | - | - | - |
| 1777831072 | 22.22° C | 45% | 975 hPa | - | - | - | - |
| 1777830172 | 22.78° C | 44% | 974 hPa | - | - | - | - |
| 1777829272 | 24.44° C | 42% | 975 hPa | - | - | - | - |
| 1777828372 | 24.44° C | 43% | 975 hPa | - | - | - | - |
| 1777827472 | 23.33° C | 45% | 975 hPa | - | - | - | - |
| 1777826571 | 18.89° C | 51% | 975 hPa | - | - | - | - |
| 1777825671 | 18.89° C | 51% | 975 hPa | - | - | - | - |
| 1777824771 | 18.33° C | 52% | 975 hPa | - | - | - | - |
| 1777823871 | 17.78° C | 53% | 975 hPa | - | - | - | - |
* Rain since midnight (hover to see other rain measurements)
** Current wind speed in m/s (hover to see current wind gust speed)